"Timestamp","TZ","WindDir_Mean (deg)","WindSpd_Mean (km/h)","WindSpd_Min (km/h)","WindSpd_Max (km/h)","Temp_Mean (deg)","RH_Mean (%)","MSLP_Mean (hPa)","Rain_Acc (mm)","Rain_Intensity (mm/h)","Hail_Acc (hits/cm2)","Hail_Intensity (hits/cm2hr)","Solar_Mean (W/m2)"
2022/05/24 00:00:00.001,n,188,1.8,1.44,2.52,16.3,84.8,1023.12,0,0,0,0,0.033951
2022/05/24 00:01:00.000,n,299,2.88,1.8,3.24,16.3,84.8,1023.12,0,0,0,0,0.031357
2022/05/24 00:02:00.000,n,181,0.72,0.36,1.08,16.3,84.9,1023.12,0,0,0,0,0.032196
2022/05/24 00:03:00.000,n,250,2.52,2.16,2.88,16.3,84.7,1023.02,0,0,0,0,0.033073
2022/05/24 00:04:00.000,n,226,1.44,0.36,2.16,16.3,84.6,1023.02,0,0,0,0,0.031357
2022/05/24 00:05:00.007,n,4,1.08,0.36,1.8,16.200002,84.8,1023.02,0,0,0,0,0.033951
2022/05/24 00:06:00.005,n,160,2.88,2.52,3.24,16.200002,84.7,1022.92,0,0,0,0,0.031357
2022/05/24 00:07:00.005,n,235,1.08,0.72,1.8,16.200002,84.6,1022.92,0,0,0,0,0.032196
2022/05/24 00:08:00.003,n,192,1.08,0.72,2.16,16.200002,84.6,1022.92,0,0,0,0,0.030441
2022/05/24 00:09:00.017,n,152,2.16,1.8,2.88,16.200002,84.7,1022.92,0,0,0,0,0.033951
2022/05/24 00:10:00.000,n,187,5.04,4.68,5.76,16.1,84.6,1022.92,0,0,0,0,0.032196
2022/05/24 00:11:00.000,n,161,7.56,5.4,9.72,16.1,84.2,1022.92,0,0,0,0,0.033073
2022/05/24 00:12:00.000,n,194,6.48,4.68,7.56,16.1,84.2,1022.92,0,0,0,0,0.028725
2022/05/24 00:13:00.004,n,172,6.48,3.96,7.92,16.1,84.3,1022.92,0,0,0,0,0.032196
2022/05/24 00:14:00.003,n,189,11.52,6.48,27.72,16.1,84.2,1022.92,0,0,0,0,0.031357
2022/05/24 00:15:00.000,n,214,4.68,4.32,5.04,16,84,1022.92,0,0,0,0,0.028725
2022/05/24 00:16:00.000,n,46,3.24,0.36,29.16,16.1,84.5,1022.92,0,0,0,0,0.033073
2022/05/24 00:17:00.013,n,222,2.88,1.8,3.96,16.1,84.5,1022.92,0,0,0,0,0.030441
2022/05/24 00:18:00.010,n,244,0.72,0.72,1.08,16.200002,84.4,1022.92,0,0,0,0,0.03479
2022/05/24 00:19:00.000,n,253,5.04,4.32,5.76,16.200002,84.4,1022.92,0,0,0,0,0.033073
2022/05/24 00:20:00.003,n,249,4.68,3.24,5.76,16.1,84.2,1022.92,0,0,0,0,0.029564
2022/05/24 00:21:00.002,n,208,6.12,5.4,7.2,16.1,84.1,1022.92,0,0,0,0,0.031357
2022/05/24 00:22:00.000,n,268,2.88,2.52,2.88,16.1,84.1,1022.92,0,0,0,0,0.030441
2022/05/24 00:23:00.000,n,232,1.8,1.44,2.16,16.1,84.3,1022.92,0,0,0,0,0.029564
2022/05/24 00:24:00.000,n,273,5.76,2.88,10.440002,16.1,84.5,1022.92,0,0,0,0,0.030441
2022/05/24 00:25:00.009,n,216,2.88,1.8,10.08,16.1,84.4,1022.92,0,0,0,0,0.031357
2022/05/24 00:26:00.006,n,221,3.24,2.16,4.32,16.1,84.2,1022.92,0,0,0,0,0.032196
2022/05/24 00:27:00.004,n,181,3.6,2.88,4.32,16.1,84,1022.92,0,0,0,0,0.033073
2022/05/24 00:28:00.000,n,123,10.440002,4.32,12.6,16.1,83.9,1022.92,0,0,0,0,0.031357
2022/05/24 00:29:00.000,n,234,2.16,1.08,2.88,16,84,1022.92,0,0,0,0,0.031357
2022/05/24 00:30:00.000,n,201,1.8,1.08,2.88,16,83.9,1022.92,0,0,0,0,0.029564
2022/05/24 00:31:00.000,n,310,1.08,0.72,1.44,16,83.9,1022.92,0,0,0,0,0.031357
2022/05/24 00:32:00.006,n,212,1.44,1.08,1.8,16,84,1022.92,0,0,0,0,0.030441
2022/05/24 00:33:00.003,n,197,1.08,0.72,1.44,16,84.1,1022.92,0,0,0,0,0.027847
2022/05/24 00:34:00.000,n,201,1.8,1.08,1.8,16,84.2,1022.92,0,0,0,0,0.030441
2022/05/24 00:35:00.015,n,244,0.72,0.36,0.72,16,84.2,1022.92,0,0,0,0,0.029564
2022/05/24 00:36:00.013,n,288,2.88,2.16,3.96,16,84.4,1022.92,0,0,0,0,0.029564
2022/05/24 00:37:00.000,n,248,5.76,5.04,6.12,16.1,84.5,1022.92,0,0,0,0,0.032196
2022/05/24 00:38:00.000,n,332,2.88,2.16,3.24,16.1,84.7,1022.92,0,0,0,0,0.033951
2022/05/24 00:39:00.004,n,264,4.32,3.96,4.68,16.200002,84.7,1022.92,0,0,0,0,0.031357
2022/05/24 00:40:00.001,n,267,3.24,2.88,3.96,16.200002,84.3,1022.92,0,0,0,0,0.029564
2022/05/24 00:41:00.000,n,232,3.6,2.52,5.4,16.1,84.1,1022.92,0,0,0,0,0.027847
2022/05/24 00:42:00.000,n,235,1.8,1.08,5.04,16.1,84.3,1022.92,0,0,0,0,0.029564
2022/05/24 00:43:00.010,n,228,2.16,1.8,2.52,16.1,84.1,1022.92,0,0,0,0,0.028725
2022/05/24 00:44:00.008,n,179,2.52,1.08,3.6,16.1,84.1,1022.92,0,0,0,0,0.028725
2022/05/24 00:45:00.004,n,127,3.6,2.16,5.4,16,84.2,1022.92,0,0,0,0,0.029564
2022/05/24 00:46:00.001,n,116,5.04,1.08,9,16,84.3,1022.92,0,0,0,0,0.029564
2022/05/24 00:47:00.000,n,161,3.24,2.52,4.32,16.1,84.3,1022.82,0,0,0,0,0.032196
2022/05/24 00:48:00.002,n,157,2.52,2.16,5.04,16,84.3,1022.82,0,0,0,0,0.033951
2022/05/24 00:49:00.000,n,160,4.32,3.24,6.84,16,84.2,1022.82,0,0,0,0,0.035706
2022/05/24 00:50:00.004,n,124,1.44,0.72,1.8,16,84.2,1022.82,0,0,0,0,0.035706
2022/05/24 00:51:00.001,n,220,5.4,4.68,6.48,16,84.2,1022.82,0,0,0,0,0.035706
2022/05/24 00:52:00.000,n,8,2.52,0.72,6.84,16,84.3,1022.82,0,0,0,0,0.035706
2022/05/24 00:53:00.000,n,284,2.52,1.44,3.6,16.1,84.5,1022.82,0,0,0,0,0.033951
2022/05/24 00:54:00.012,n,130,1.08,0.72,1.08,16.1,84.4,1022.82,0,0,0,0,0.033951
2022/05/24 00:55:00.000,n,197,2.88,1.44,4.68,16.1,84.3,1022.82,0,0,0,0,0.03479
2022/05/24 00:56:00.000,n,219,3.96,3.24,6.48,16.1,84.2,1022.82,0,0,0,0,0.033951
2022/05/24 00:57:00.003,n,259,6.12,5.76,6.48,16,84.1,1022.92,0,0,0,0,0.033951
2022/05/24 00:58:00.001,n,229,3.24,2.52,4.32,16,84.2,1022.82,0,0,0,0,0.033951
2022/05/24 00:59:00.000,n,315,3.96,1.44,5.76,16,84.3,1022.82,0,0,0,0,0.033951
2022/05/24 01:00:00.000,n,298,4.32,2.52,6.48,16,84.4,1022.82,0,0,0,0,0.03479
2022/05/24 01:01:00.008,n,326,4.68,3.24,6.84,16,84.5,1022.82,0,0,0,0,0.033951
2022/05/24 01:02:00.006,n,225,3.24,2.16,4.68,16.1,84.4,1022.82,0,0,0,0,0.033073
2022/05/24 01:03:00.002,n,260,5.04,4.32,7.92,16.1,84.3,1022.82,0,0,0,0,0.033073
2022/05/24 01:04:00.000,n,265,4.68,3.24,6.84,16.1,84.2,1022.82,0,0,0,0,0.036583
2022/05/24 01:05:00.000,n,296,2.88,1.8,3.6,16.1,84.4,1022.72,0,0,0,0,0.037422
2022/05/24 01:06:00.000,n,301,2.88,1.8,4.68,16.1,84.3,1022.72,0,0,0,0,0.036583
2022/05/24 01:07:00.000,n,254,5.4,3.24,6.48,16,84.3,1022.72,0,0,0,0,0.035706
2022/05/24 01:08:00.000,n,319,2.88,0.72,3.96,16,84.4,1022.72,0,0,0,0,0.035706
2022/05/24 01:09:00.007,n,167,3.24,2.52,5.76,16.1,84.4,1022.72,0,0,0,0,0.0383
2022/05/24 01:10:00.005,n,198,4.32,2.16,6.84,16,84.2,1022.82,0,0,0,0,0.036583
2022/05/24 01:11:00.001,n,64,2.88,0,7.2,16,84.2,1022.82,0,0,0,0,0.037422
2022/05/24 01:12:00.014,n,179,8.64,5.76,13.32,16,84,1022.82,0,0,0,0,0.033951
2022/05/24 01:13:00.000,n,262,6.12,1.08,8.64,16,84,1022.72,0,0,0,0,0.035706
2022/05/24 01:14:00.000,n,175,3.6,2.16,9,16,84,1022.72,0,0,0,0,0.036583
2022/05/24 01:15:00.000,n,118,2.88,1.8,4.68,16,84,1022.72,0,0,0,0,0.03479
2022/05/24 01:16:00.003,n,156,2.52,1.8,2.88,16,84.1,1022.72,0,0,0,0,0.037422
2022/05/24 01:17:00.001,n,213,2.16,0.72,7.2,16,84.2,1022.72,0,0,0,0,0.035706
2022/05/24 01:18:00.000,n,196,3.24,2.16,6.12,16,84.1,1022.72,0,0,0,0,0.035706
2022/05/24 01:19:00.000,n,193,3.6,2.16,8.28,16,84.1,1022.72,0,0,0,0,0.035706
2022/05/24 01:20:00.010,n,168,9,6.84,10.440002,16,84.1,1022.72,0,0,0,0,0.033951
2022/05/24 01:21:00.009,n,217,3.24,2.16,3.96,16,84,1022.72,0.01,1,0,0,0.037422
2022/05/24 01:22:00.000,n,199,3.96,3.24,4.32,16,83.9,1022.62,0.01,0,0,0,0.0383
2022/05/24 01:23:00.003,n,135,2.88,0.72,6.12,16,83.9,1022.62,0.01,0,0,0,0.036583
2022/05/24 01:24:00.000,n,177,5.04,4.68,5.04,16,83.9,1022.62,0.01,0,0,0,0.035706
2022/05/24 01:25:00.000,n,183,3.24,2.16,5.76,16,83.9,1022.62,0.01,0,0,0,0.0383
2022/05/24 01:26:00.003,n,212,2.88,2.16,3.96,16,83.8,1022.62,0.01,0,0,0,0.036583
2022/05/24 01:27:00.009,n,276,2.52,1.44,3.6,16,84.1,1022.52,0.01,0,0,0,0.036583
2022/05/24 01:28:00.000,n,140,1.08,0.72,1.44,16,84.1,1022.52,0.01,0,0,0,0.037422
2022/05/24 01:29:00.002,n,229,2.16,1.44,2.52,16,84.2,1022.52,0.01,0,0,0,0.03479
2022/05/24 01:30:00.008,n,247,2.16,1.8,2.52,16,84.2,1022.42,0.01,0,0,0,0.033951
2022/05/24 01:31:00.000,n,215,3.6,2.88,3.96,16,84.2,1022.42,0.01,0,0,0,0.033951
2022/05/24 01:32:00.002,n,263,6.84,6.12,8.28,16,84,1022.42,0.01,0,0,0,0.033951
2022/05/24 01:33:00.000,n,265,6.12,5.4,7.2,16,84,1022.42,0.01,0,0,0,0.036583
2022/05/24 01:34:00.000,n,261,2.52,2.16,3.6,15.9,84,1022.42,0.01,0,0,0,0.036583
2022/05/24 01:35:00.004,n,267,3.24,2.88,3.96,15.9,84.1,1022.42,0.01,0,0,0,0.033073
2022/05/24 01:36:00.010,n,246,5.76,5.04,6.48,15.9,84.4,1022.42,0.01,0,0,0,0.033951
2022/05/24 01:37:00.000,n,240,2.88,2.16,3.24,16,84.4,1022.52,0.01,0,0,0,0.03479
2022/05/24 01:38:00.004,n,227,6.48,6.12,6.84,16,84.3,1022.42,0.01,0,0,0,0.03479
2022/05/24 01:39:00.009,n,252,7.92,6.12,10.08,15.9,84.4,1022.42,0.01,0,0,0,0.03479
2022/05/24 01:40:00.000,n,279,7.56,7.2,8.28,15.9,84.3,1022.32,0.01,0,0,0,0.035706
2022/05/24 01:41:00.004,n,148,1.08,0.36,2.16,16,85,1022.42,0.01,0,0,0,0.03479
2022/05/24 01:42:00.000,n,187,0.72,0.36,1.08,16,84.8,1022.42,0.01,0,0,0,0.031357
2022/05/24 01:43:00.000,n,91,2.88,1.8,4.32,16,84.6,1022.42,0.01,0,0,0,0.033951
2022/05/24 01:44:00.004,n,274,1.8,0.36,3.6,16,84.6,1022.42,0.01,0,0,0,0.029564
2022/05/24 01:45:00.009,n,246,1.44,1.08,2.16,16,84.6,1022.42,0.01,0,0,0,0.031357
2022/05/24 01:46:00.000,n,124,0.72,0.36,1.08,15.9,84.5,1022.42,0.01,0,0,0,0.033951
2022/05/24 01:47:00.003,n,222,3.24,2.88,3.96,15.9,84.9,1022.42,0.01,0,0,0,0.03479
2022/05/24 01:48:00.010,n,279,7.2,6.48,8.28,16,84.7,1022.42,0.01,0,0,0,0.031357
2022/05/24 01:49:00.000,n,224,0.36,0,0.72,15.9,84.6,1022.52,0.01,0,0,0,0.035706
2022/05/24 01:50:00.000,n,315,2.88,2.52,3.24,15.9,84.7,1022.52,0.01,0,0,0,0.03479
2022/05/24 01:51:00.000,n,65,1.08,0.36,1.08,15.9,84.8,1022.52,0.01,0,0,0,0.033073
2022/05/24 01:52:00.001,n,265,1.44,1.08,1.8,15.9,84.9,1022.52,0.01,0,0,0,0.033073
2022/05/24 01:53:00.006,n,75,1.44,0.72,2.16,16,85.1,1022.42,0.01,0,0,0,0.035706
2022/05/24 01:54:00.000,n,227,2.52,2.16,2.88,16,85.1,1022.42,0.01,0,0,0,0.033951
2022/05/24 01:55:00.001,n,198,1.8,0.72,2.52,16,85,1022.42,0.01,0,0,0,0.030441
2022/05/24 01:56:00.007,n,133,1.8,0.72,3.96,16,84.8,1022.42,0.01,0,0,0,0.032196
2022/05/24 01:57:00.012,n,183,1.8,1.44,1.8,15.9,84.8,1022.42,0.01,0,0,0,0.03479
2022/05/24 01:58:00.000,n,187,2.52,2.16,2.88,15.9,84.8,1022.32,0.01,0,0,0,0.031357
2022/05/24 01:59:00.000,n,159,5.4,5.04,5.76,15.9,84.8,1022.42,0.01,0,0,0,0.030441
2022/05/24 02:00:00.000,n,145,7.56,5.76,9,15.9,84.8,1022.42,0.01,0,0,0,0.031357
2022/05/24 02:01:00.001,n,165,8.64,6.84,10.440002,15.9,84.6,1022.42,0.01,0,0,0,0.029564
2022/05/24 02:02:00.007,n,161,2.52,2.16,3.24,15.8,84.5,1022.32,0.01,0,0,0,0.031357
2022/05/24 02:03:00.000,n,188,8.64,7.2,10.08,15.8,84.5,1022.32,0.01,0,0,0,0.027847
2022/05/24 02:04:00.001,n,180,3.24,2.88,4.32,15.8,84.5,1022.32,0.01,0,0,0,0.028725
2022/05/24 02:05:00.008,n,199,5.04,4.32,5.76,15.8,84.6,1022.22,0.01,0,0,0,0.030441
2022/05/24 02:06:00.013,n,246,4.68,2.88,5.4,15.9,84.5,1022.22,0.01,0,0,0,0.027847
2022/05/24 02:07:00.000,n,292,3.24,2.16,3.6,15.9,84.7,1022.22,0.01,0,0,0,0.026093
2022/05/24 02:08:00.000,n,211,1.8,1.44,2.52,16,85.1,1022.32,0.01,0,0,0,0.028725
2022/05/24 02:09:00.000,n,149,2.88,1.8,4.32,16,84.9,1022.32,0.01,0,0,0,0.027847
2022/05/24 02:10:00.005,n,16,3.24,2.52,3.6,16,84.9,1022.32,0.01,0,0,0,0.027008
2022/05/24 02:11:00.000,n,263,2.16,0.72,3.6,16,84.6,1022.32,0.01,0,0,0,0.027008
2022/05/24 02:12:00.000,n,181,8.64,7.92,9.36,16,84.4,1022.32,0.01,0,0,0,0.027008
2022/05/24 02:13:00.005,n,177,10.08,9.72,11.16,15.9,84.3,1022.32,0.01,0,0,0,0.028725
2022/05/24 02:14:00.011,n,237,5.76,3.24,9,15.9,84.3,1022.32,0.01,0,0,0,0.027847
2022/05/24 02:15:00.016,n,236,3.6,3.24,3.96,15.9,84.4,1022.32,0.01,0,0,0,0.026093
2022/05/24 02:16:00.000,n,201,10.08,9,10.8,15.9,84.2,1022.22,0.01,0,0,0,0.029564
2022/05/24 02:17:00.000,n,263,2.52,1.8,3.24,15.9,84.3,1022.22,0.01,0,0,0,0.028725
2022/05/24 02:18:00.000,n,197,3.24,2.52,4.32,15.9,84.2,1022.22,0.01,0,0,0,0.026093
2022/05/24 02:19:00.006,n,233,2.88,2.52,3.6,15.9,84.3,1022.22,0.01,0,0,0,0.027008
2022/05/24 02:20:00.000,n,224,3.6,2.88,5.04,15.9,84.3,1022.22,0.01,0,0,0,0.029564
2022/05/24 02:21:00.000,n,175,1.44,0.36,2.52,15.9,84.5,1022.22,0.01,0,0,0,0.026093
2022/05/24 02:22:00.006,n,234,1.8,0,2.88,15.9,84.5,1022.22,0.01,0,0,0,0.027847
2022/05/24 02:23:00.011,n,342,5.04,3.24,5.76,15.9,84.8,1022.12,0.01,0,0,0,0.027008
2022/05/24 02:24:00.016,n,270,2.88,2.52,3.6,16,84.5,1022.12,0.01,0,0,0,0.027008
2022/05/24 02:25:00.000,n,221,1.8,0.72,2.52,15.9,84.3,1022.12,0.01,0,0,0,0.025215
2022/05/24 02:26:00.000,n,126,1.44,1.08,1.8,15.9,84.3,1022.12,0.01,0,0,0,0.024376
2022/05/24 02:27:00.000,n,292,0.36,0,0.36,15.9,84.3,1022.12,0.01,0,0,0,0.023499
2022/05/24 02:28:00.005,n,225,2.16,1.08,2.88,15.9,84.5,1022.12,0.01,0,0,0,0.027008
2022/05/24 02:29:00.000,n,233,2.88,2.52,3.6,15.9,84.3,1022.12,0.01,0,0,0,0.024376
2022/05/24 02:30:00.000,n,242,1.08,0.72,1.08,15.9,84.3,1022.12,0.01,0,0,0,0.025215
2022/05/24 02:31:00.006,n,190,3.6,2.88,4.32,15.9,84.2,1022.12,0.01,0,0,0,0.025215
2022/05/24 02:32:00.012,n,230,2.88,2.52,3.24,15.9,84.3,1022.12,0.01,0,0,0,0.027008
2022/05/24 02:33:00.000,n,191,5.4,4.32,5.76,15.9,84.3,1022.12,0.01,0,0,0,0.031357
2022/05/24 02:34:00.000,n,151,4.68,3.96,5.04,15.9,84.2,1022.12,0.01,0,0,0,0.030441
2022/05/24 02:35:00.000,n,226,7.92,6.48,10.08,15.8,84,1022.12,0.01,0,0,0,0.029564
2022/05/24 02:36:00.003,n,197,2.88,2.52,3.24,15.8,84.1,1022.12,0.01,0,0,0,0.029564
2022/05/24 02:37:00.007,n,219,7.2,3.96,8.64,15.8,84,1022.12,0.01,0,0,0,0.026093
2022/05/24 02:38:00.000,n,146,5.4,3.24,7.56,15.8,84,1022.12,0.01,0,0,0,0.025215
2022/05/24 02:39:00.001,n,186,7.2,5.04,10.08,15.8,84.1,1022.12,0.01,0,0,0,0.027847
2022/05/24 02:40:00.007,n,180,9,7.2,10.08,15.8,83.9,1022.12,0.01,0,0,0,0.027847
2022/05/24 02:41:00.012,n,280,4.32,2.88,5.76,15.8,84.1,1022.12,0.01,0,0,0,0.027008
2022/05/24 02:42:00.001,n,205,5.4,4.68,5.76,15.8,84.2,1022.12,0.01,0,0,0,0.025215
2022/05/24 02:43:00.000,n,165,5.76,3.96,7.2,15.8,83.9,1022.12,0.01,0,0,0,0.023499
2022/05/24 02:44:00.000,n,197,6.48,5.76,7.2,15.8,83.8,1022.12,0.01,0,0,0,0.027008
2022/05/24 02:45:00.002,n,196,5.04,3.6,6.48,15.8,83.7,1022.12,0.01,0,0,0,0.022621
2022/05/24 02:46:00.000,n,69,2.16,1.44,2.16,15.8,84.1,1022.12,0.01,0,0,0,0.025215
2022/05/24 02:47:00.000,n,163,6.48,6.12,6.84,15.8,83.8,1022.12,0.01,0,0,0,0.023499
2022/05/24 02:48:00.003,n,196,9.72,8.28,10.440002,15.8,83.5,1022.02,0.01,0,0,0,0.026093
2022/05/24 02:49:00.009,n,197,6.12,5.04,7.92,15.8,83.4,1022.02,0.01,0,0,0,0.025215
2022/05/24 02:50:00.015,n,201,11.52,9.72,12.96,15.7,83.3,1022.02,0.01,0,0,0,0.025215
2022/05/24 02:51:00.003,n,186,4.68,4.32,5.04,15.8,83.4,1021.92,0.01,0,0,0,0.023499
2022/05/24 02:52:00.000,n,228,2.88,2.52,3.24,15.8,83.3,1021.92,0.01,0,0,0,0.022621
2022/05/24 02:53:00.002,n,186,2.52,1.08,3.24,15.8,83.4,1021.92,0.01,0,0,0,0.023499
2022/05/24 02:54:00.000,n,158,12.24,5.04,13.68,15.7,83.2,1021.92,0.01,0,0,0,0.026093
2022/05/24 02:55:00.000,n,171,15.84,14.4,16.56,15.7,83.1,1021.92,0.01,0,0,0,0.024376
2022/05/24 02:56:00.003,n,160,7.2,2.88,9,15.7,83.2,1022.02,0.01,0,0,0,0.026093
2022/05/24 02:57:00.008,n,186,5.4,2.88,6.84,15.7,83.2,1021.92,0.01,0,0,0,0.023499
2022/05/24 02:58:00.000,n,174,14.04,12.96,15.12,15.7,83.2,1021.92,0.01,0,0,0,0.021782
2022/05/24 02:59:00.002,n,210,10.8,10.08,11.88,15.7,83.1,1021.92,0.01,0,0,0,0.019989
2022/05/24 03:00:00.009,n,175,10.08,9.36,11.52,15.7,83.1,1021.82,0.01,0,0,0,0.024376
2022/05/24 03:01:00.000,n,137,9,6.48,10.8,15.7,83.1,1021.82,0.01,0,0,0,0.024376
2022/05/24 03:02:00.004,n,175,15.84,15.48,16.56,15.7,83.1,1021.82,0.01,0,0,0,0.018272
2022/05/24 03:03:00.000,n,174,2.52,1.44,3.96,15.7,83.2,1021.82,0.01,0,0,0,0.020866
2022/05/24 03:04:00.000,n,200,11.16,9.72,13.32,15.7,83.1,1021.72,0.01,0,0,0,0.020866
2022/05/24 03:05:00.003,n,183,8.28,7.56,9,15.7,83.1,1021.72,0.01,0,0,0,0.028725
2022/05/24 03:06:00.008,n,206,7.2,5.76,9.36,15.7,83.1,1021.72,0.01,0,0,0,0.027008
2022/05/24 03:07:00.010,n,250,5.04,4.68,5.4,15.7,83.2,1021.72,0.01,0,0,0,0.028725
2022/05/24 03:08:00.000,n,194,10.440002,9.36,11.16,15.7,83.2,1021.72,0.01,0,0,0,0.030479
2022/05/24 03:09:00.007,n,170,4.68,4.32,5.4,15.7,83.2,1021.72,0.01,0,0,0,0.027885
2022/05/24 03:10:00.000,n,186,8.64,7.92,9,15.7,83.3,1021.72,0.02,0,0,0,0.027885
2022/05/24 03:11:00.002,n,172,8.28,6.12,9.72,15.7,83.2,1021.72,0.02,0,0,0,0.029602
2022/05/24 03:12:00.000,n,185,2.52,1.08,4.32,15.7,83.1,1021.82,0.02,0,0,0,0.031357
2022/05/24 03:13:00.000,n,178,8.28,5.4,9.72,15.7,83.1,1021.82,0.02,0,0,0,0.031357
2022/05/24 03:14:00.001,n,207,3.96,2.16,5.76,15.7,83.2,1021.82,0.02,0,0,0,0.029602
2022/05/24 03:15:00.006,n,220,6.84,6.12,9.72,15.7,83.2,1021.82,0.02,0,0,0,0.028725
2022/05/24 03:16:00.013,n,143,1.08,0.72,1.8,15.7,83.4,1021.82,0.02,0,0,0,0.029602
2022/05/24 03:17:00.001,n,307,3.96,2.16,5.4,15.8,83.6,1021.82,0.02,0,0,0,0.028725
2022/05/24 03:18:00.007,n,190,2.88,2.52,3.24,15.8,83.7,1021.82,0.02,0,0,0,0.028725
2022/05/24 03:19:00.000,n,211,3.24,2.88,3.6,15.8,83.6,1021.82,0.02,0,0,0,0.029602
2022/05/24 03:20:00.001,n,194,3.6,2.52,4.68,15.8,83.5,1021.82,0.02,0,0,0,0.026131
2022/05/24 03:21:00.000,n,309,2.88,2.16,3.24,15.8,83.6,1021.82,0.02,0,0,0,0.030479
2022/05/24 03:22:00.000,n,182,1.8,1.44,2.52,15.8,83.6,1021.82,0.02,0,0,0,0.028725
2022/05/24 03:23:00.004,n,262,5.76,5.4,6.12,15.8,83.6,1021.82,0.02,0,0,0,0.029602
2022/05/24 03:24:00.010,n,246,1.44,1.44,2.16,15.8,83.9,1021.82,0.02,0,0,0,0.029602
2022/05/24 03:25:00.000,n,315,1.44,0.72,2.16,15.8,83.9,1021.92,0.02,0,0,0,0.029602
2022/05/24 03:26:00.005,n,59,2.16,0.72,2.52,15.8,84,1021.92,0.02,0,0,0,0.030479
2022/05/24 03:27:00.010,n,136,3.6,2.16,5.04,15.8,83.7,1021.92,0.02,0,0,0,0.027885
2022/05/24 03:28:00.000,n,71,2.88,2.16,3.24,15.8,83.6,1021.92,0.02,0,0,0,0.027885
2022/05/24 03:29:00.000,n,154,6.84,5.76,8.28,15.8,83.6,1021.92,0.02,0,0,0,0.031357
2022/05/24 03:30:00.000,n,205,0.36,0.36,1.08,15.8,83.7,1021.92,0.02,0,0,0,0.029602
2022/05/24 03:31:00.001,n,209,1.08,0.72,1.44,15.8,84.1,1021.92,0.02,0,0,0,0.027885
2022/05/24 03:32:00.006,n,111,2.16,1.8,2.88,15.8,84.1,1021.92,0.02,0,0,0,0.031357
2022/05/24 03:33:00.000,n,184,1.44,0.72,2.16,15.8,83.9,1022.02,0.02,0,0,0,0.027885
2022/05/24 03:34:00.001,n,219,1.8,1.44,2.16,15.8,83.7,1022.02,0.02,0.1,0,0,0.032234
2022/05/24 03:35:00.008,n,152,4.32,3.24,5.4,15.8,83.8,1022.12,0.03,0.3,0,0,0.030479
2022/05/24 03:36:00.005,n,102,2.16,1.8,2.52,15.8,83.7,1022.12,0.03,0.3,0,0,0.028725
2022/05/24 03:37:00.000,n,189,6.48,3.24,7.92,15.8,83.8,1022.12,0.03,0.2,0,0,0.032234
2022/05/24 03:38:00.002,n,248,3.96,2.52,5.04,15.7,83.8,1022.12,0.05,1,0,0,0.031357
2022/05/24 03:39:00.000,n,215,2.52,2.16,3.24,15.7,83.8,1022.12,0.05,0,0,0,0.033112
2022/05/24 03:40:00.000,n,243,3.24,2.52,3.96,15.7,84,1022.12,0.05,0,0,0,0.033951
2022/05/24 03:41:00.000,n,242,2.52,1.8,2.88,15.7,84.2,1022.12,0.05,0,0,0,0.033951
2022/05/24 03:42:00.000,n,278,3.96,3.24,5.4,15.8,84.3,1022.12,0.05,0,0,0,0.031357
2022/05/24 03:43:00.009,n,272,5.4,3.96,6.12,15.8,84.5,1022.02,0.05,0,0,0,0.033112
2022/05/24 03:44:00.006,n,267,5.76,4.68,6.84,15.8,84.2,1022.02,0.05,0,0,0,0.035706
2022/05/24 03:45:00.004,n,254,8.64,7.92,9,15.8,84.1,1022.02,0.05,0,0,0,0.036583
2022/05/24 03:46:00.000,n,279,8.64,3.24,10.8,15.7,84.1,1022.02,0.05,0,0,0,0.035706
2022/05/24 03:47:00.001,n,274,6.84,6.12,7.2,15.7,84.2,1022.12,0.05,0,0,0,0.0383
2022/05/24 03:48:00.000,n,268,4.68,3.96,5.4,15.7,84.3,1022.12,0.05,0,0,0,0.033951
2022/05/24 03:49:00.000,n,256,5.04,4.68,6.12,15.7,84.4,1022.12,0.05,0,0,0,0.036583
2022/05/24 03:50:00.009,n,286,6.12,5.04,7.2,15.7,84.4,1022.02,0.05,0,0,0,0.036583
2022/05/24 03:51:00.005,n,253,8.28,7.56,9.36,15.7,84.4,1022.02,0.05,0,0,0,0.035706
2022/05/24 03:52:00.003,n,279,5.4,5.04,6.84,15.7,84.6,1022.02,0.05,0,0,0,0.032234
2022/05/24 03:53:00.001,n,242,3.24,2.52,3.6,15.7,84.5,1022.02,0.05,0,0,0,0.033112
2022/05/24 03:54:00.015,n,194,1.44,0.36,2.52,15.7,84.6,1022.02,0.05,0,0,0,0.033112
2022/05/24 03:55:00.000,n,135,2.52,1.8,2.88,15.7,84.6,1022.02,0.05,0,0,0,0.031357
2022/05/24 03:56:00.000,n,271,4.32,3.96,6.12,15.7,84.7,1022.02,0.05,0,0,0,0.035706
2022/05/24 03:57:00.000,n,230,1.8,1.08,2.16,15.7,84.7,1022.02,0.05,0,0,0,0.035706
2022/05/24 03:58:00.005,n,217,1.44,0.72,3.24,15.7,84.8,1022.12,0.05,0,0,0,0.032234
2022/05/24 03:59:00.002,n,161,5.4,4.68,5.76,15.7,84.8,1022.12,0.05,0,0,0,0.030479
2022/05/24 04:00:00.000,n,156,6.12,4.68,6.48,15.7,84.9,1022.02,0.05,0,0,0,0.028725
2022/05/24 04:01:00.000,n,191,4.32,3.6,5.76,15.7,84.8,1022.12,0.05,0,0,0,0.033112
2022/05/24 04:02:00.010,n,272,1.44,0.72,1.8,15.7,84.9,1022.12,0.05,0,0,0,0.032234
2022/05/24 04:03:00.007,n,136,0.72,0,2.16,15.7,85,1022.12,0.05,0,0,0,0.032234
2022/05/24 04:04:00.000,n,193,6.12,5.4,6.84,15.7,85,1022.12,0.05,0,0,0,0.033112
2022/05/24 04:05:00.003,n,172,0.36,0.36,0.72,15.7,84.9,1022.12,0.05,0,0,0,0.032234
2022/05/24 04:06:00.000,n,191,4.32,2.88,5.76,15.7,85,1022.12,0.05,0,0,0,0.030479
2022/05/24 04:07:00.000,n,188,2.52,2.16,2.88,15.7,85,1022.12,0.05,0,0,0,0.032234
2022/05/24 04:08:00.000,n,202,2.88,2.52,3.24,15.7,85.1,1022.12,0.07,1.1,0,0,0.029602
2022/05/24 04:09:00.008,n,149,6.48,4.68,8.64,15.7,84.9,1022.12,0.07,0.1,0,0,0.029602
2022/05/24 04:10:00.005,n,160,7.92,3.96,15.84,15.6,84.9,1022.22,0.07,0,0,0,0.030479
2022/05/24 04:11:00.002,n,165,13.32,7.92,14.04,15.6,84.9,1022.22,0.07,0,0,0,0.032234
2022/05/24 04:12:00.016,n,16,1.8,0.72,3.96,15.6,85.1,1022.32,0.09,0.8,0,0,0.029602
2022/05/24 04:13:00.000,n,225,1.08,0.72,1.44,15.7,85,1022.32,0.1,0.7,0,0,0.028725
2022/05/24 04:14:00.000,n,150,10.08,5.04,16.2,15.7,85,1022.32,0.11,0.2,0,0,0.029602
2022/05/24 04:15:00.000,n,165,1.44,0.36,2.88,15.7,85.2,1022.22,0.13,1.1,0,0,0.029602
2022/05/24 04:16:00.000,n,189,2.88,1.8,3.96,15.7,85.3,1022.22,0.13,0.5,0,0,0.029602
2022/05/24 04:17:00.009,n,260,6.12,5.04,6.84,15.7,85.3,1022.22,0.14,0.3,0,0,0.030479
2022/05/24 04:18:00.007,n,209,6.12,6.12,6.48,15.7,85.3,1022.22,0.14,0.1,0,0,0.028725
2022/05/24 04:19:00.005,n,179,3.6,2.52,4.68,15.7,85.3,1022.22,0.14,0,0,0,0.029602
2022/05/24 04:20:00.004,n,155,10.8,8.64,11.88,15.7,85.2,1022.22,0.14,0,0,0,0.030479
2022/05/24 04:21:00.001,n,153,6.12,5.04,6.84,15.6,85.1,1022.12,0.14,0,0,0,0.027008
2022/05/24 04:22:00.000,n,153,9.72,6.84,15.48,15.6,85.3,1022.22,0.18,2,0,0,0.029602
2022/05/24 04:23:00.000,n,182,9,5.76,10.440002,15.6,85.1,1022.12,0.18,0.1,0,0,0.027008
2022/05/24 04:24:00.000,n,154,8.64,8.64,9,15.6,85.2,1022.22,0.18,0.2,0,0,0.028725
2022/05/24 04:25:00.000,n,158,9,7.56,10.440002,15.6,85.2,1022.22,0.18,0,0,0,0.027008
2022/05/24 04:26:00.009,n,206,5.4,3.6,6.48,15.6,85.3,1022.22,0.18,0,0,0,0.029602
2022/05/24 04:27:00.006,n,201,7.92,6.48,8.64,15.5,85.3,1022.22,0.18,0,0,0,0.025253
2022/05/24 04:28:00.004,n,170,3.24,2.88,3.6,15.6,85.3,1022.12,0.18,0,0,0,0.025253
2022/05/24 04:29:00.002,n,182,5.4,5.04,6.12,15.6,85.4,1022.22,0.18,0,0,0,0.023537
2022/05/24 04:30:00.016,n,144,2.16,1.08,2.88,15.6,85.5,1022.12,0.18,0,0,0,0.025253
2022/05/24 04:31:00.000,n,173,2.16,1.8,2.52,15.6,85.6,1022.12,0.18,0,0,0,0.024376
2022/05/24 04:32:00.000,n,211,6.12,5.04,7.92,15.6,85.5,1022.12,0.18,0,0,0,0.024376
2022/05/24 04:33:00.000,n,201,7.92,6.12,11.16,15.6,85.5,1022.12,0.19,0.1,0,0,0.023537
2022/05/24 04:34:00.000,n,183,1.44,0.72,2.16,15.6,85.5,1022.12,0.19,0,0,0,0.026131
2022/05/24 04:35:00.006,n,180,2.52,1.08,3.6,15.6,85.6,1022.22,0.19,0,0,0,0.024376
2022/05/24 04:36:00.004,n,173,10.08,8.28,14.4,15.6,85.5,1022.22,0.21,1.5,0,0,0.024376
2022/05/24 04:37:00.002,n,183,8.28,6.48,12.24,15.6,85.5,1022.22,0.22,0.4,0,0,0.021744
2022/05/24 04:38:00.000,n,181,5.76,5.04,6.12,15.6,85.5,1022.12,0.25,0.7,0,0,0.023537
2022/05/24 04:39:00.014,n,226,3.24,2.16,4.32,15.6,85.5,1022.12,0.25,1.1,0,0,0.021744
2022/05/24 04:40:00.000,n,192,6.12,2.16,8.28,15.6,85.7,1022.12,0.25,0,0,0,0.025253
2022/05/24 04:41:00.000,n,220,5.04,3.6,5.76,15.6,85.7,1022.12,0.25,0,0,0,0.023537
2022/05/24 04:42:00.000,n,163,3.6,2.88,3.96,15.6,85.7,1022.12,0.25,0,0,0,0.021744
2022/05/24 04:43:00.004,n,284,2.88,2.16,3.96,15.6,85.7,1022.12,0.25,0,0,0,0.020027
2022/05/24 04:44:00.001,n,164,3.96,3.6,4.32,15.6,85.6,1022.12,0.25,0,0,0,0.023537
2022/05/24 04:45:00.000,n,201,2.16,1.44,2.88,15.6,85.6,1022.12,0.25,0,0,0,0.021744
2022/05/24 04:46:00.013,n,253,2.52,2.52,2.88,15.6,85.7,1022.12,0.25,0,0,0,0.024376
2022/05/24 04:47:00.010,n,251,4.32,3.96,4.68,15.6,85.6,1022.12,0.25,0,0,0,0.025253